EW6254 Weather Reports


time (UTC)temp
F
wind
direction
speed
knots
gust
knots
rain 1hr
in
rain 24hr
in
rain mn
in
humidity
%
barometer
mb
20180619141551 71 205 0.0 0.0 0.00 1.79 1.19 94 1011.1
20180619140528 70 193 0.0 0.0 0.00 1.79 1.19 94 1010.9
20180619135510 70 95 0.0 0.0 0.00 1.79 1.19 94 1010.8
20180619134451 70 22 0.0 0.0 0.00 1.78 1.19 94 1010.6
20180619133441 71 5 0.0 0.0 0.04 1.78 1.19 94 1011.2
20180619132425 70 22 0.0 0.0 0.04 1.78 1.19 94 1011.3
20180619131401 71 19 0.0 0.0 0.07 1.77 1.17 94 1010.7
20180619130328 71 29 0.0 0.0 0.09 1.76 1.16 94 1011.2
20180619125332 71 345 0.0 0.0 0.07 1.74 1.15 94 1010.9
20180619124344 71 131 0.0 0.0 0.14 1.73 1.14 94 1010.7
20180619123342 72 155 0.0 0.0 0.00 1.67 1.07 94 1010.3
20180619122317 71 142 0.0 0.0 0.04 1.67 1.07 94 1010.4
20180619121324 72 81 0.0 0.0 0.11 1.67 1.07 93 1010.6
20180619120305 72 110 0.0 0.0 0.61 1.65 1.05 93 1010.3
20180619115323 72 207 0.0 0.0 0.91 1.52 0.95 93 1010.3
20180619114252 72 228 0.0 0.0 0.29 1.48 0.89 93 1009.6
20180619113307 72 131 0.0 0.0 0.46 1.33 0.74 92 1009.6
20180619112313 72 143 0.0 0.0 0.00 1.28 0.68 92 1009.5
20180619111328 71 144 0.0 0.0 0.00 1.27 0.67 91 1009.4
20180619110318 71 140 0.0 0.0 0.00 1.27 0.67 91 1009.6
20180619105322 71 200 0.0 0.0 0.00 1.27 0.67 91 1009.6
20180619104254 71 200 0.0 0.0 0.00 1.27 0.67 91 1009.7
20180619103239 71 200 0.0 0.0 0.00 1.27 0.67 91 1010.0
20180619102250 71 200 0.0 0.0 0.00 1.27 0.67 91 1010.1
20180619101303 71 200 0.0 0.0 0.00 1.27 0.67 91 1009.8
20180619100808 71 200 0.0 0.0 0.00 1.26 0.67 91 1009.7
20180619095756 71 200 0.0 0.0 0.00 1.26 0.67 90 1009.6
20180619094719 71 202 0.0 0.0 0.00 1.26 0.67 90 1009.3
20180619093717 71 201 0.0 0.0 0.00 1.26 0.67 90 1009.2
20180619092658 71 200 0.0 0.0 0.00 1.26 0.67 90 1009.1
20180619091719 71 166 0.0 0.0 0.00 1.26 0.67 90 1009.3
20180619090738 71 138 0.0 0.0 0.00 1.26 0.67 90 1009.2
20180619085718 71 154 0.0 0.0 0.00 1.26 0.67 90 1009.3
20180619084733 71 149 0.0 0.0 0.00 1.26 0.67 90 1009.4
20180619083719 71 136 0.0 0.0 0.00 1.26 0.67 90 1009.6
20180619082643 71 155 0.0 0.0 0.00 1.26 0.67 90 1009.7
20180619081702 71 150 0.0 0.0 0.00 1.26 0.67 91 1009.6
20180619080648 71 135 0.0 0.0 0.00 1.26 0.67 90 1009.6
20180619075624 72 140 0.0 0.0 0.00 1.26 0.67 90 1009.5
20180619074636 72 132 0.0 0.0 0.00 1.26 0.67 90 1009.7
20180619073618 72 117 0.0 0.0 0.00 1.26 0.67 91 1009.7
20180619072629 72 146 0.0 0.0 0.00 1.26 0.67 91 1009.9
20180619071631 72 134 0.0 0.0 0.00 1.26 0.67 91 1009.7
20180619070645 72 146 0.0 0.0 0.00 1.26 0.67 91 1009.7
20180619065650 72 131 0.0 0.0 0.00 1.26 0.67 90 1009.7
20180619064650 71 149 0.0 0.0 0.00 1.26 0.67 90 1009.8
20180619063625 71 142 0.0 0.0 0.00 1.26 0.67 90 1009.9
20180619062636 70 140 0.0 0.0 0.00 1.26 0.67 90 1009.4
20180619061605 70 143 0.0 0.0 0.00 1.26 0.67 91 1009.6
20180619060545 70 134 0.0 0.0 0.00 1.26 0.67 92 1009.8
20180619055602 70 143 0.0 0.0 0.00 1.26 0.67 92 1010.3
20180619054536 70 145 0.0 0.0 0.00 1.26 0.67 93 1010.3
20180619053551 70 144 0.0 0.0 0.00 1.26 0.67 93 1010.8
20180619052521 69 126 0.0 0.0 0.07 1.26 0.67 93 1011.0
20180619051527 70 160 0.0 0.0 0.46 1.25 0.66 92 1010.5
20180619050501 71 0 0.0 0.0 2.32 0.58 0.26 92 1012.3
20180619045430 71 0 0.0 0.0 0.14 0.50 0.50 90 1012.2
20180619044449 71 0 0.0 0.0 0.00 0.46 0.46 90 1010.1
20180619043435 71 0 0.0 0.0 0.00 0.46 0.46 91 1009.8
20180619042431 70 0 0.0 0.0 0.00 0.46 0.46 92 1010.1
20180619041427 70 0 0.0 0.0 0.00 0.46 0.46 92 1010.1
20180619040437 70 0 0.0 0.0 0.00 0.46 0.46 92 1010.2
20180619035407 70 0 0.0 0.0 0.00 0.46 0.46 93 1010.7
20180619034417 70 0 0.0 0.0 0.00 0.46 0.46 93 1010.7
20180619033421 70 0 0.0 0.0 0.00 0.46 0.46 93 1010.8
20180619032357 70 0 0.0 0.0 0.00 0.46 0.46 93 1010.4
20180619031413 70 0 0.0 0.0 0.00 0.46 0.46 93 1010.6
20180619030403 70 0 0.0 0.0 0.00 0.46 0.46 93 1010.4
20180619025350 70 0 0.0 0.0 0.00 0.46 0.46 93 1010.3
20180619024335 70 0 0.0 0.0 0.00 0.46 0.46 93 1010.1
20180619023358 70 0 0.0 0.0 0.00 0.46 0.46 93 1010.0
20180619022328 70 0 0.0 0.0 0.00 0.46 0.46 93 1009.8
20180619021313 70 0 0.0 0.0 0.00 0.46 0.46 93 1009.5
20180619020325 70 0 0.0 0.0 0.00 0.46 0.46 93 1009.4
20180619015328 70 0 0.0 0.0 0.00 0.46 0.46 93 1009.1
20180619014316 70 0 0.0 0.0 0.00 0.46 0.46 93 1009.3
20180619013327 71 0 0.0 0.0 0.00 0.46 0.46 93 1009.3
20180619012319 70 0 0.0 0.0 0.00 0.46 0.46 93 1009.5
20180619011308 70 0 0.0 0.0 0.00 0.46 0.46 93 1009.2
20180619010323 70 0 0.0 0.0 0.00 0.46 0.46 93 1009.0
20180619005315 70 0 0.0 0.0 0.00 0.46 0.46 94 1009.1
20180619004318 70 0 0.0 0.0 0.00 0.46 0.46 93 1009.0
20180619003242 70 0 0.0 0.0 0.00 0.46 0.46 93 1009.1
20180619002227 70 0 0.0 0.0 0.00 0.46 0.46 93 1008.9
20180619001222 71 0 0.0 0.0 0.00 0.46 0.46 92 1008.7
20180619000157 71 0 0.0 0.0 0.00 0.46 0.46 92 1008.5
20180618235219 72 0 0.0 0.0 0.05 0.46 0.46 92 1008.3
20180618234223 73 0 0.0 0.0 0.05 0.46 0.46 91 1008.5
20180618233237 73 0 0.0 0.0 0.06 0.45 0.45 91 1008.8
20180618232243 75 275 0.0 0.0 0.14 0.45 0.44 92 1009.3
20180618231225 75 295 0.0 0.0 0.00 0.42 0.41 92 1008.8
20180618230213 75 138 0.0 0.0 0.00 0.42 0.41 91 1008.5
20180618225145 75 137 0.0 0.0 0.00 0.42 0.41 91 1007.9
20180618224155 74 0 0.0 0.0 0.05 0.42 0.41 91 1007.5
20180618223151 74 132 0.0 0.0 0.20 0.42 0.41 90 1007.9
20180618222204 74 0 0.0 0.0 0.00 0.39 0.38 88 1008.0
20180618221154 75 0 0.0 0.0 0.05 0.38 0.37 86 1007.2
20180618220212 74 0 0.0 0.0 0.21 0.38 0.37 86 1006.8
20180618215218 75 136 0.0 0.0 0.33 0.20 0.20 83 1008.0
20180618214231 77 78 0.0 0.0 0.00 0.16 0.14 82 1008.4
20180618213221 76 103 0.0 0.0 0.00 0.16 0.14 87 1007.9
20180618212153 77 117 0.0 0.0 0.00 0.15 0.14 91 1007.6
20180618211215 75 0 0.0 0.0 0.07 0.15 0.14 91 1007.7
20180618210146 74 0 0.0 0.0 0.59 0.13 0.12 88 1008.0
20180618205208 74 0 0.0 0.0 0.95 0.03 0.02 82 1008.5
20180618204155 77 0 0.0 0.0 0.00 0.03 0.00 70 1008.3
20180618203121 86 5 0.0 0.0 0.00 0.04 0.00 57 1008.9
20180618202117 91 138 0.0 0.0 0.00 0.04 0.00 59 1008.1
20180618201048 91 128 0.0 0.0 0.00 0.04 0.00 59 1007.6
20180618200037 91 115 0.0 0.0 0.00 0.04 0.00 59 1007.9
20180618195000 91 338 0.0 0.0 0.00 0.04 0.00 61 1008.1
20180618194002 91 147 0.0 0.0 0.00 0.04 0.00 61 1008.2
20180618192943 90 173 0.0 0.0 0.00 0.04 0.00 61 1008.5
20180618191924 90 189 0.0 0.0 0.00 0.04 0.00 61 1008.6
20180618190900 89 162 0.0 0.0 0.00 0.04 0.00 62 1008.9
20180618185832 88 187 0.0 0.0 0.00 0.04 0.00 63 1009.4
20180618184849 89 149 0.0 0.0 0.00 0.04 0.00 64 1009.1
20180618183814 89 205 0.0 0.0 0.00 0.04 0.00 62 1009.2
20180618182810 89 227 0.0 0.0 0.00 0.04 0.00 61 1009.4
20180618181819 89 271 0.0 0.0 0.00 0.04 0.00 60 1009.4
20180618180814 90 223 0.0 0.0 0.00 0.04 0.00 61 1009.5
20180618175758 90 190 0.0 0.0 0.00 0.04 0.00 59 1009.7
20180618174819 90 229 0.0 0.0 0.00 0.04 0.00 61 1009.8
20180618173820 90 205 0.0 0.0 0.00 0.04 0.00 59 1009.8
20180618172836 90 174 0.0 0.0 0.00 0.04 0.00 60 1009.7
20180618171840 90 167 0.0 0.0 0.00 0.04 0.00 61 1009.8
20180618170832 89 171 0.0 0.0 0.00 0.04 0.00 61 1009.8
20180618165845 89 209 0.0 0.0 0.00 0.04 0.00 63 1009.9
20180618164829 88 235 0.0 0.0 0.00 0.04 0.00 63 1010.0
20180618163851 88 205 0.0 0.0 0.00 0.04 0.00 63 1010.1
20180618162909 88 254 0.0 0.0 0.00 0.04 0.00 63 1010.1
20180618161925 87 202 0.0 0.0 0.00 0.04 0.00 64 1010.0
20180618160851 87 184 0.0 0.0 0.00 0.04 0.00 64 1010.0
20180618155827 86 240 0.0 0.0 0.00 0.04 0.00 65 1010.1
20180618154835 86 125 0.0 0.0 0.00 0.04 0.00 66 1010.2
20180618153815 86 182 0.0 0.0 0.00 0.04 0.00 66 1010.1
20180618152824 85 275 0.0 0.0 0.00 0.04 0.00 66 1010.0
20180618151748 85 163 0.0 0.0 0.00 0.04 0.00 67 1010.1
20180618150808 84 144 0.0 0.0 0.00 0.04 0.00 70 1010.0
20180618145753 84 251 0.0 0.0 0.00 0.04 0.00 70 1010.0
20180618144756 82 212 0.0 0.0 0.00 0.04 0.00 71 1010.2
20180618143801 82 144 0.0 0.0 0.00 0.04 0.00 73 1010.3
20180618142746 81 189 0.0 0.0 0.00 0.04 0.00 74 1010.4